Regional Weather Roundup
Issued by NWS Lake Charles, LA

Home | Current Version | Previous Version | Text Only | Print | Product List | Glossary On
Versions: 1 2 3 4 5 6 7 8 9 10 11 12 13 14 15 16 17 18 19 20 21 22 23 24 25 26 27 28 29 30 31 32 33 34 35 36 37 38 39 40 41 42 43 44 45 46 47 48 49 50
000
ASUS44 KLCH 282310
RWRLCH
RWRLCH
REGIONAL WEATHER ROUNDUP
NATIONAL WEATHER SERVICE LAKE CHARLES LA
600 PM CDT THU MAY 28 2015

Note: "fair" indicates few or no clouds below 12,000 feet with no
significant weather and/or obstructions to visibility.


ACROSS SOUTHEAST TEXAS

CITY           SKY/WX    TMP DP  RH WIND       PRES   REMARKS
BEAUMONT       MOSUNNY   86  73  65 S8        30.01F
BEAUMONT CITY    N/A     85  73  66 S8        30.01F
ORANGE         PTCLDY    85  68  56 S9        30.03F
JASPER         MOSUNNY   90  72  56 SE3       30.02F
$$

ACROSS CENTRAL LOUISIANA

CITY           SKY/WX    TMP DP  RH WIND       PRES   REMARKS
LEESVILLE      MOSUNNY   89  69  52 S9        30.00F
FULLERTON        N/A     90  69  50 VRB3      29.98F
ALEXANDRIA INT PTSUNNY   85  69  58 S5        29.99F
ESLER FIELD    SUNNY     87  70  56 SE8       30.02F
DERIDDER         N/A     89  69  51 S6        30.02F
OAKDALE        CLEAR     87  73  62 SE5       30.01F
OPELOUSAS        N/A    N/A N/A N/A CALM      30.03F
$$

ACROSS SOUTHWEST AND SOUTH CENTRAL LOUISIANA

CITY           SKY/WX    TMP DP  RH WIND       PRES   REMARKS
SULPHUR        CLEAR     87  72  60 S7        30.02F
LAKE CHARLES   SUNNY     85  74  69 SW8       30.01F
CHENNAULT INT  SUNNY     88  68  51 SE7       30.02F
CAMERON PHI    CLEAR     82  73  74 S9        30.05F
DEQUINCY       MOCLDY    85  75  72 S5        30.01F
JENNINGS       MOCLDY    87  71  59 CALM      30.02F
LAFAYETTE      MOSUNNY   88  68  51 VRB3      30.02F
NEW IBERIA     MOSUNNY   87  72  60 S6        30.03F
ABBEVILLE        N/A     86  71  59 SE6       30.03S
PATTERSON      SUNNY     84  72  65 SW7       30.05S
SALT POINT       N/A     86  72  62 CALM      30.02F
$$

SELECTED SITES ACROSS THE REGION

CITY           SKY/WX    TMP DP  RH WIND       PRES   REMARKS
HOUSTON BUSH   CLOUDY    84  75  74 SE14      29.97F
HOUSTON HOBBY  PTSUNNY   84  73  69 SE12      29.97F
GALVESTON      PTSUNNY   83  77  82 SE12      30.01F
COLLEGE STAT   PTSUNNY   82  67  60 SE12      29.94F
CONROE         CLOUDY    83  72  69 SE12      29.97F
HUNTSVILLE     CLOUDY    85  71  63 SE5       29.97F
LUFKIN         PTSUNNY   91  70  49 SE10      29.97F
SHREVEPORT     PTSUNNY   81  73  76 NE7       30.00F THUNDER
MONROE         PTSUNNY   86  71  60 NE7       30.03F
NATCHEZ MS     SUNNY     84  70  61 N7        30.05S
BATON ROUGE    PTSUNNY   87  69  54 NE3       30.03S
N.O. INTL ARPT MOSUNNY   87  67  51 E7        30.04S
SLIDELL        MOSUNNY   87  69  54 S6        30.04S
$$

MARINE REPORTS

STATION/POSITION TIME  TEMP    WIND        PRES    VSBY  WAVE
                       AIR SEA DIR/SP/G                  HT/PER
                 (UTC) (F)     (DEG/KT/KT) (MB)    (MI)  (FT/S)
BUOY 30 S HIGH I 2250   81 83  120/  8/ 10 1015.8F         2/ 7
SEA RIM ST PARK  2300   82     140/  7/ 10 1016.8F
PORT ARTHUR      2200      77  150/  5/  8 1017.1F
SABINE PASS N    2200   82 78  150/  7/  9 1017.4F
TEXAS POINT      NOT AVBL
CALCASIEU PASS   2200   81 82  210/  8/  9   N/A
LK CHARLES BEACH 2200   88 77              1017.1F
MARSH ISLAND     2200   82     180/  5/  7   N/A           0
FRESH WATER LOCK 2200   82 82  150/  8/  9   N/A
AMERADA PASS     2200   84 82  220/  1/  4 1017.2F
$$



USA.gov is the U.S. government's official web portal to all federal, state and local government web resources and services.